Location: Bederkesa
(53.6226°N, 8.8382°E)
Time: 19:57:02
(UTC+00:00)

Daily predictions for brighter satellites

Satellite Brightness Start Highest point End
(mag) Time Altitude Azimuth Time Altitude Azimuth Time Altitude Azimuth
Cosmos 1980 Rocket 4.0 15:57:11 10° ESE 15:58:56 11° E 16:00:41 10° ENE
Cosmos 1464 Rocket 4.4 15:53:29 10° N 15:59:12 37° ENE 16:04:51 10° SE
Cosmos 2297 Rocket 2.4 15:54:17 10° NNW 15:59:59 84° WSW 16:05:38 10° SSE
Cosmos 1943 Rocket 3.7 15:55:12 10° W 16:00:02 28° NW 16:04:54 10° NNE
Cosmos 2227 Rocket 2.3 15:54:53 10° NNW 16:00:36 89° WSW 16:06:16 10° SSE
USA 238 DEB 4.4 15:55:27 10° WNW 16:01:57 40° N 16:08:42 10° ENE
USA 238 4.4 15:55:33 10° WNW 16:02:03 39° N 16:08:48 10° ENE
ATLAS 3B R/B 3.5 15:57:08 10° WNW 16:03:13 35° N 16:09:18 10° ENE
Feng Yun 1-1 Rocket 4.3 15:59:12 10° SE 16:04:35 56° ENE 16:09:54 10° N
NOSS 7 (D) 3.9 16:02:24 10° SW 16:05:15 75° NW 16:08:00 10° NE
Cosmos 2123 Rocket 4.1 15:59:40 10° S 16:05:53 89° E 16:12:06 10° N
NOSS 3-2 (A) 4.4 15:59:43 10° WNW 16:06:00 40° N 16:13:10 10° ENE
Cosmos 2221 2.6 16:02:10 10° S 16:06:27 64° E 16:10:48 10° NNE
Cosmos 1633 3.3 16:04:19 10° N 16:07:36 31° ENE 16:10:52 10° SE
Cosmos 397 4.4 16:04:15 10° NW 16:08:33 64° NE 16:12:37 10° SE
NOAA 6 4.5 16:05:18 10° S 16:10:27 69° WSW 16:15:37 10° NNW
AQUARIUS 4.3 16:09:41 10° SE 16:14:03 51° ENE 16:18:25 10° N
Cosmos 2263 Rocket 3.1 16:11:23 10° NNW 16:16:12 29° NE 16:21:00 10° E
Genesis I 3.3 16:12:18 10° SW 16:16:20 88° NW 16:20:21 10° NE
Cosmos 1689 Rocket 2.3 16:13:46 10° N 16:16:49 75° WNW 16:19:51 10° SSW
Cosmos 1340 Rocket 4.1 16:15:44 10° SW 16:19:35 42° WNW 16:23:30 10° N
ATLAS 5 CENTAUR R/B 3.6 16:17:03 10° NW 16:22:26 46° SW 16:28:34 10° SSE
Cosmos 1869 3.5 16:20:34 10° SSE 16:24:21 47° E 16:28:09 10° NNE
Helios 1A Rocket 4.4 16:22:44 10° S 16:26:41 42° W 16:30:39 10° NNW
H-2A R/B 2.7 16:23:32 10° SSE 16:27:17 58° ENE 16:31:02 10° N
Cosmos 2344 3.8 16:21:05 10° SW 16:28:37 83° NW 16:37:29 10° NE
YAOGAN 1 3.7 16:25:42 10° ESE 16:29:02 22° ENE 16:32:24 10° N
Cosmos 2369 4.4 16:24:03 10° S 16:29:04 34° ESE 16:34:08 10° NE
Ariane Rocket 4.5 16:26:31 11° E 16:29:27 17° NE 16:32:36 10° NNE
Cosmos 2082 3.8 16:25:58 10° NNW 16:31:37 83° WSW 16:37:15 10° SSE
Cosmos 773 Rocket 4.0 16:26:37 10° SSW 16:31:48 83° ESE 16:37:04 10° NNE
Cosmos 1697 Rocket 3.4 16:30:50 10° S 16:35:54 35° ESE 16:40:38 12° NE
CZ-4B R/B 3.3 16:33:06 10° N 16:36:06 30° WNW 16:39:08 10° SW
Cosmos 1238 Rocket 4.0 16:33:05 10° NNW 16:37:12 46° W 16:40:38 10° SSW
FengYun 1-2 T 4.5 16:36:24 10° SE 16:41:36 45° ENE 16:46:49 10° N
Cosmos 2278 4.4 16:42:03 10° S 16:47:07 35° ESE 16:51:14 15° NE
Cosmos 1513 Rocket 4.5 16:42:06 10° N 16:48:34 75° ENE 16:54:55 10° SSE
Cosmos 1656 3.6 16:43:42 10° SSW 16:49:10 67° ESE 16:54:25 11° NE
Cosmos 1356 Rocket 3.4 16:45:24 10° S 16:49:34 71° E 16:53:52 10° NNE
YAOGAN 6 3.1 16:46:55 10° SE 16:50:06 34° ENE 16:53:19 10° N
PSLV R/B 4.0 16:46:37 10° NNE 16:50:52 85° WNW 16:55:05 10° SSW
USA 215 3.3 16:46:00 15° E 16:51:33 68° N 16:58:02 10° WNW
NOSS 3-2 (C) 4.4 16:45:32 10° NW 16:51:59 42° NNE 16:57:20 18° ENE
Cosmos 1805 Rocket 4.2 16:47:55 10° NNW 16:52:13 59° W 16:56:31 10° S
Cosmos 923 Rocket 4.2 16:48:00 10° S 16:53:00 48° ESE 16:57:35 12° NE
Cosmos 1624 Rocket 4.0 16:47:41 10° NNW 16:53:01 61° ENE 16:58:18 10° SE
Cosmos 2056 Rocket 3.5 16:49:00 10° NNW 16:54:05 59° ENE 16:59:12 10° SE
Cosmos 1844 Rocket 4.0 16:54:00 10° NNW 16:58:07 20° NNE 16:59:52 18° NE
Cosmos 2034 Rocket 4.0 16:52:40 10° N 16:59:02 68° ENE 17:05:23 10° SSE
Cosmos 44 4.1 16:56:45 10° NW 17:00:35 28° NNE 17:02:04 23° ENE
NOSS 2-3 (E) 4.4 16:57:16 10° S 17:01:25 38° ESE 17:03:59 23° ENE
Cosmos 2278 Rocket 4.1 16:59:01 10° NNW 17:02:01 14° N 17:04:14 12° NE
BREEZE-M DEB (TANK) 3.2 16:59:20 10° W 17:02:46 38° S 17:03:53 22° SE
Cosmos 2227 4.3 16:57:24 10° NNW 17:03:09 60° NE 17:08:50 10° SE
CZ-4 R/B 1.6 17:00:02 10° SE 17:03:59 48° ENE 17:07:53 10° N
H-2A R/B 3.8 17:04:52 15° NE 17:04:52 15° NE 17:07:07 10° NNE
USA 229 DEB 3.7 16:57:50 10° SW 17:04:29 85° SE 17:10:04 17° NE
USA 229 3.6 16:57:57 10° SW 17:04:35 85° SE 17:10:09 17° NE
Cosmos 1867 4.3 16:59:33 10° WSW 17:04:52 50° NW 17:09:14 15° NE
Cosmos 1538 Rocket 4.2 17:00:11 10° SSW 17:05:28 73° WNW 17:10:52 10° NNE
NOSS 3-1 (C) 3.4 17:01:59 10° SW 17:07:43 83° SE 17:12:46 18° NE
Meteor 2-20 Rocket 4.4 17:01:56 10° S 17:08:03 85° E 17:14:16 10° NNE
Lacrosse 4 Rocket 1.3 17:04:04 10° SSW 17:08:05 65° ESE 17:10:14 26° NE
Okean-O 2.8 17:04:37 10° SSE 17:09:03 78° WSW 17:13:32 10° NNW
ERBS 2.4 17:05:48 10° SW 17:09:05 61° SSE 17:10:09 37° E
SeaSat 1 2.4 17:04:38 10° SSE 17:09:35 89° SW 17:14:34 10° NNW
Cosmos 1939 Rocket 3.7 17:09:23 28° ENE 17:09:41 29° ENE 17:13:15 10° N
NOSS 3-1 (A) 3.4 17:04:05 10° SSW 17:09:42 63° SE 17:14:11 21° NE
NOSS 2-3 (D) 4.3 17:06:51 10° SSW 17:11:03 42° SE 17:13:16 27° ENE
CSL-04 Debris 4.2 17:09:47 10° SE 17:15:10 58° ENE 17:20:34 10° N
NOAA 11 4.5 17:10:10 10° SE 17:15:15 43° ENE 17:20:23 10° N
Cosmos 1634 Rocket 4.2 17:10:22 10° N 17:16:18 44° ENE 17:22:09 10° SE
CZ-4 R/B 4.3 17:14:32 10° SSE 17:18:39 71° ENE 17:22:50 10° N
Cosmos 1633 Rocket 3.4 17:14:15 10° NNW 17:18:40 70° W 17:23:04 10° S
Cosmos 1862 3.9 17:16:02 10° NNW 17:19:58 59° W 17:23:54 10° S
Cosmos 1933 4.3 17:17:53 10° SSE 17:20:31 28° ESE 17:20:31 28° ESE
Sich 1 4.5 17:20:19 10° NNW 17:24:24 40° W 17:28:29 10° SSW
Envisat 3.2 17:19:40 10° S 17:24:45 75° WSW 17:29:52 10° NNW
CSL-04 Rocket 3.5 17:22:07 10° SSE 17:27:24 69° ENE 17:32:40 10° NNW
Cosmos 1151 Rocket 3.0 17:23:07 10° S 17:27:27 62° E 17:30:55 16° NNE
Meteor 1-20 Rocket 4.4 17:22:49 10° N 17:28:35 54° ENE 17:34:16 10° SSE
Meteor 1-25 Rocket 4.3 17:23:22 10° N 17:28:56 54° ENE 17:34:32 10° SSE
Cosmos 2369 Rocket 4.3 17:26:42 10° NW 17:29:59 16° NNW 17:33:17 10° NNE
Cosmos 2228 Rocket 4.3 17:26:42 10° SSE 17:29:07 26° SE 17:29:07 26° SE
NOAA 15 4.5 17:25:31 10° SSE 17:30:48 77° ENE 17:36:06 10° NNW
Tsikada Rocket 4.1 17:25:06 10° S 17:31:19 58° E 17:37:37 10° NNE
Timation 1 Rocket 4.3 17:26:31 10° NNW 17:32:31 68° NE 17:36:48 20° SE
CENTAUR R/B 3.4 17:26:20 10° NW 17:33:25 47° NNE 17:37:13 29° ENE
Cosmos 2279 Rocket 4.4 17:28:48 10° N 17:34:37 39° ENE 17:36:59 29° ESE
Cosmos 1933 Rocket 3.4 17:30:34 10° N 17:34:56 77° ENE 17:39:17 10° SSE
Cosmos 1420 Rocket 3.9 17:30:14 10° NNW 17:35:25 63° ENE 17:38:28 24° SE
COSMO-SKYMED 1 2.5 17:33:59 25° NNE 17:36:28 64° ESE 17:40:46 10° S
Cosmos 1328 Rocket 3.4 17:32:44 10° S 17:37:09 82° ESE 17:40:58 14° NNE
SL-16 R/B 4.0 17:36:57 10° SSE 17:38:08 14° SE 17:38:08 14° SE
Cosmos 1515 Rocket 3.5 17:37:14 10° S 17:41:32 59° E 17:42:37 45° NE
Cosmos 1980 Rocket 2.2 17:36:11 10° SSW 17:41:43 58° ESE 17:43:59 35° NE
COBE Rocket 4.2 17:37:08 10° N 17:41:55 65° WNW 17:46:33 10° SSW
CZ-2D R/B 3.6 17:43:22 47° NNE 17:43:22 47° NNE 17:46:26 10° N
Cosmos 1452 Rocket 3.5 17:37:23 10° NNW 17:42:39 59° ENE 17:44:36 37° ESE
Cosmos 158 Rocket 4.0 17:40:24 10° S 17:45:33 58° ESE 17:46:56 43° ENE
Cosmos 1943 Rocket 4.4 17:42:47 10° NW 17:45:49 14° N 17:48:34 11° NNE
Geosat 3.9 17:44:29 36° NE 17:46:31 69° ESE 17:51:32 10° SSW
Cosmos 2322 Rocket 4.3 17:44:18 10° SSE 17:44:20 10° SSE 17:44:20 10° SSE
NOSS 2-3 (C) 3.7 17:44:12 10° SW 17:48:44 75° SE 17:50:10 47° ENE
USA 116 4.2 17:48:38 42° NE 17:50:03 60° ESE 17:55:07 10° S
GEOS 3 Rocket 3.6 17:49:26 45° ENE 17:50:57 65° SE 17:56:11 10° SW
USA 238 DEB 3.8 17:46:57 10° NW 17:54:02 69° NE 17:56:59 38° ESE
USA 238 3.8 17:47:03 10° NW 17:54:08 68° NE 17:57:04 38° ESE
ATLAS 3B R/B 3.1 17:49:04 10° NW 17:55:24 43° NNE 17:57:03 37° NE
NOSS 3-2 (A) 3.9 17:50:58 10° NW 17:58:04 68° NE 18:01:13 39° ESE
IRS-1A Rocket 4.3 17:56:58 38° SE 17:59:03 61° ENE 18:04:47 10° NNW
Cosmos 2263 Rocket 2.2 17:55:10 10° NNW 18:00:46 82° WSW 18:04:08 25° SSE
Meteor 1-14 Rocket 4.2 17:55:18 10° N 18:01:18 68° ENE 18:04:46 26° SSE
Cosmos 2112 Rocket 4.0 17:57:33 10° SSW 18:02:45 78° WNW 18:05:20 31° NNE
YAOGAN 1 3.1 18:00:32 10° S 18:04:48 59° WSW 18:09:07 10° NNW
Ariane Rocket 2.8 18:06:45 59° SE 18:07:38 74° ENE 18:12:44 10° NNW
Cosmos 1680 Rocket 3.9 18:03:26 10° SW 18:08:37 63° WNW 18:11:28 27° NNE
Cosmos 2369 4.2 18:07:26 10° SW 18:13:02 57° NW 18:16:05 27° NNE
Cosmos 1697 Rocket 3.3 18:14:09 10° SW 18:19:42 55° NW 18:22:22 30° NNE
SKYMED 2 4.4 18:22:40 29° N 18:24:35 49° WNW 18:28:46 10° SW
ARGOS 4.5 18:30:12 27° N 18:30:12 27° N 18:32:47 10° N
Cosmos 2360 4.5 18:23:59 10° SW 18:29:40 66° NW 18:31:22 44° N
Cosmos 2278 4.2 18:25:29 10° SW 18:31:05 56° NW 18:33:11 36° N
MOS 1 4.1 18:33:06 79° NNE 18:33:06 79° NNE 18:38:33 10° NNW
USA 215 3.2 18:33:21 63° SE 18:34:32 84° SSW 18:41:07 10° WNW
CZ-4 R/B 3.8 18:35:59 10° SW 18:39:14 22° W 18:42:27 10° NW
Cosmos 44 4.4 18:37:54 10° NW 18:40:30 35° NW 18:40:30 35° NW
H-2A R/B 3.5 18:45:30 27° N 18:45:30 27° N 18:47:55 10° N
Cosmos 1844 Rocket 3.4 18:37:40 10° NNW 18:41:32 42° N 18:41:32 42° N
NOSS 3-2 (C) 3.8 18:36:43 10° NW 18:43:56 77° NE 18:44:47 70° E
Cosmos 2344 4.4 18:36:45 10° W 18:44:19 47° N 18:47:34 35° NE
Cosmos 1939 Rocket 4.4 18:45:17 35° WNW 18:45:17 35° WNW 18:48:24 10° NNW
Lacrosse 4 Rocket 3.3 18:43:39 10° W 18:46:34 25° NW 18:46:34 25° NW
Cosmos 2278 Rocket 3.9 18:43:21 10° NNW 18:46:05 22° N 18:46:05 22° N
USA 229 DEB 4.4 18:49:37 10° W 18:56:06 45° NNW 18:57:30 40° N
USA 229 4.4 18:49:44 10° W 18:56:11 45° NNW 18:57:35 40° N
NOSS 3-1 (C) 4.3 18:53:25 10° W 18:59:13 44° NNW 19:00:10 41° N
NOSS 3-1 (A) 4.1 18:55:03 10° W 19:00:53 50° NNW 19:01:38 48° N
Cosmos 2369 Rocket 4.5 19:13:35 10° NNW 19:15:20 13° N 19:15:20 13° N
SL-16 R/B 4.4 19:18:59 10° SW 19:20:04 16° SW 19:20:04 16° SW
CENTAUR R/B 3.0 19:17:14 10° NW 19:24:25 79° NW 19:24:25 79° NW
Cosmos 1980 Rocket 3.5 19:20:47 10° WSW 19:25:47 37° NW 19:25:47 37° NW
ATLAS 3B R/B 3.6 19:40:01 10° NW 19:44:18 43° NW 19:44:18 43° NW
